When you browse on this site, cookies collect data to enhance your experience and personalize the content and advertising you see.
Visit our Privacy Policy to learn more. By continuing to use the site, you agree to this use of cookies and data.
  • In Switzerland
  • List of Countries
  • For 7 days
  • Water Temperature
  • Weather Map
  • Weather Widgets
  • user-avatar
    Login

    Hourly Weather Ondjiwa

    Today, 14 November, Thursday

    Time Temperature Precipitation Wind Pressure Humidity
    00:00 +26°C° 0.1 mm 2 mps 666 mmHg 61%
    01:00 +25°C° 0 mm 2 mps 666 mmHg 70%
    02:00 +24°C° 0.3 mm 2 mps 666 mmHg 71%
    03:00 +24°C° 0.3 mm 2 mps 665 mmHg 73%
    04:00 +24°C° 0.3 mm 2 mps 665 mmHg 74%
    05:00 +24°C° 0 mm 2 mps 666 mmHg 71%
    06:00 +25°C° 0 mm 3 mps 666 mmHg 69%
    07:00 +25°C° 0 mm 3 mps 667 mmHg 64%
    08:00 +28°C° 0 mm 2 mps 668 mmHg 53%
    09:00 +30°C° 0 mm 2 mps 668 mmHg 43%
    10:00 +32°C° 0 mm 1 mps 668 mmHg 33%
    11:00 +34°C° 0 mm 1 mps 668 mmHg 30%
    12:00 +35°C° 0 mm 1 mps 668 mmHg 28%
    13:00 +34°C° 0 mm 0 mps 667 mmHg 26%
    14:00 +34°C° 0 mm 0 mps 667 mmHg 27%
    15:00 +33°C° 0 mm 0 mps 666 mmHg 28%
    16:00 +32°C° 0 mm 0 mps 665 mmHg 29%
    17:00 +33°C° 0 mm 1 mps 665 mmHg 31%
    18:00 +32°C° 0 mm 1 mps 665 mmHg 34%
    19:00 +31°C° 0 mm 1 mps 665 mmHg 36%
    20:00 +31°C° 0.1 mm 1 mps 666 mmHg 39%
    21:00 +30°C° 0.1 mm 1 mps 666 mmHg 41%
    22:00 +29°C° 0.1 mm 2 mps 666 mmHg 44%
    23:00 +29°C° 0 mm 2 mps 666 mmHg 44%

    Tomorrow, 15 November, Friday

    Time Temperature Precipitation Wind Pressure Humidity
    00:00 +29°C° 0 mm 2 mps 666 mmHg 44%
    01:00 +28°C° 0 mm 3 mps 666 mmHg 44%
    02:00 +27°C° 0 mm 2 mps 666 mmHg 44%
    03:00 +27°C° 0 mm 2 mps 666 mmHg 44%
    04:00 +26°C° 0 mm 1 mps 665 mmHg 44%
    05:00 +27°C° 0 mm 1 mps 666 mmHg 41%
    06:00 +27°C° 0 mm 1 mps 666 mmHg 38%
    07:00 +27°C° 0 mm 1 mps 667 mmHg 35%
    08:00 +29°C° 0 mm 2 mps 667 mmHg 30%
    09:00 +31°C° 0 mm 2 mps 667 mmHg 25%
    10:00 +32°C° 0 mm 2 mps 667 mmHg 21%
    11:00 +35°C° 0 mm 2 mps 667 mmHg 18%
    12:00 +36°C° 0 mm 2 mps 667 mmHg 16%
    13:00 +37°C° 0 mm 2 mps 666 mmHg 14%
    14:00 +37°C° 0 mm 2 mps 665 mmHg 14%
    15:00 +37°C° 0 mm 2 mps 665 mmHg 15%
    16:00 +37°C° 0 mm 2 mps 664 mmHg 15%
    17:00 +35°C° 0 mm 2 mps 664 mmHg 17%
    18:00 +33°C° 0 mm 1 mps 664 mmHg 18%
    19:00 +32°C° 0 mm 1 mps 664 mmHg 20%
    20:00 +31°C° 0 mm 2 mps 665 mmHg 25%
    21:00 +30°C° 0 mm 4 mps 665 mmHg 30%
    22:00 +29°C° 0 mm 5 mps 666 mmHg 35%
    23:00 +28°C° 0 mm 5 mps 666 mmHg 42%

    Day after tomorrow, 16 November, Saturday

    Time Temperature Precipitation Wind Pressure Humidity
    00:00 +27°C° 0 mm 4 mps 665 mmHg 50%
    01:00 +26°C° 0 mm 4 mps 665 mmHg 58%
    02:00 +25°C° 0 mm 4 mps 665 mmHg 58%
    03:00 +25°C° 0 mm 4 mps 665 mmHg 59%
    04:00 +25°C° 0 mm 4 mps 665 mmHg 59%
    05:00 +25°C° 0 mm 4 mps 665 mmHg 58%
    06:00 +25°C° 0 mm 4 mps 666 mmHg 58%
    07:00 +25°C° 0 mm 4 mps 666 mmHg 57%
    08:00 +27°C° 0 mm 4 mps 667 mmHg 47%
    09:00 +29°C° 0 mm 3 mps 667 mmHg 38%
    10:00 +31°C° 0 mm 3 mps 667 mmHg 29%
    11:00 +33°C° 0 mm 3 mps 667 mmHg 25%
    12:00 +34°C° 0 mm 2 mps 666 mmHg 22%
    13:00 +35°C° 0 mm 2 mps 666 mmHg 19%
    14:00 +34°C° 0 mm 1 mps 665 mmHg 18%
    15:00 +34°C° 0 mm 1 mps 665 mmHg 18%
    16:00 +34°C° 0 mm 1 mps 664 mmHg 17%
    17:00 +33°C° 0 mm 1 mps 664 mmHg 19%
    18:00 +31°C° 0 mm 1 mps 664 mmHg 21%
    19:00 +30°C° 0 mm 1 mps 663 mmHg 23%
    20:00 +29°C° 0 mm 1 mps 664 mmHg 28%
    21:00 +28°C° 0 mm 2 mps 664 mmHg 33%
    22:00 +27°C° 0 mm 3 mps 664 mmHg 38%
    23:00 +26°C° 0 mm 3 mps 664 mmHg 37%

    17 November, Sunday

    Time Temperature Precipitation Wind Pressure Humidity
    00:00 +26°C° 0 mm 3 mps 664 mmHg 37%
    01:00 +25°C° 0 mm 2 mps 664 mmHg 36%
    02:00 +24°C° 0 mm 2 mps 664 mmHg 34%
    03:00 +24°C° 0 mm 2 mps 664 mmHg 33%
    04:00 +23°C° 0 mm 2 mps 664 mmHg 31%
    05:00 +24°C° 0 mm 2 mps 664 mmHg 29%
    06:00 +25°C° 0 mm 2 mps 665 mmHg 26%
    07:00 +26°C° 0 mm 2 mps 665 mmHg 24%
    08:00 +28°C° 0 mm 3 mps 666 mmHg 20%
    09:00 +30°C° 0 mm 3 mps 666 mmHg 17%
    10:00 +34°C° 0 mm 3 mps 666 mmHg 13%
    11:00 +35°C° 0 mm 3 mps 666 mmHg 13%
    12:00 +36°C° 0 mm 3 mps 665 mmHg 12%
    13:00 +37°C° 0 mm 3 mps 665 mmHg 12%
    14:00 +37°C° 0 mm 3 mps 664 mmHg 12%
    15:00 +37°C° 0 mm 3 mps 664 mmHg 12%
    16:00 +37°C° 0 mm 3 mps 663 mmHg 12%
    17:00 +35°C° 0 mm 2 mps 663 mmHg 14%
    18:00 +32°C° 0 mm 2 mps 663 mmHg 16%
    19:00 +31°C° 0 mm 1 mps 664 mmHg 18%
    20:00 +30°C° 0 mm 2 mps 664 mmHg 20%
    21:00 +29°C° 0 mm 4 mps 664 mmHg 22%
    22:00 +28°C° 0 mm 5 mps 665 mmHg 25%
    23:00 +27°C° 0 mm 4 mps 665 mmHg 27%

    18 November, Monday

    Time Temperature Precipitation Wind Pressure Humidity
    00:00 +26°C° 0 mm 3 mps 664 mmHg 30%
    01:00 +25°C° 0 mm 2 mps 664 mmHg 32%
    02:00 +24°C° 0 mm 2 mps 664 mmHg 34%
    03:00 +23°C° 0 mm 2 mps 664 mmHg 36%
    04:00 +21°C° 0 mm 2 mps 664 mmHg 38%
    05:00 +23°C° 0 mm 2 mps 664 mmHg 37%
    06:00 +24°C° 0 mm 2 mps 665 mmHg 36%
    07:00 +25°C° 0 mm 2 mps 665 mmHg 35%
    08:00 +27°C° 0 mm 3 mps 666 mmHg 27%
    09:00 +30°C° 0 mm 3 mps 666 mmHg 20%
    10:00 +33°C° 0 mm 3 mps 667 mmHg 13%
    11:00 +34°C° 0 mm 3 mps 666 mmHg 13%
    12:00 +34°C° 0 mm 3 mps 666 mmHg 12%
    13:00 +35°C° 0 mm 3 mps 666 mmHg 12%
    14:00 +35°C° 0 mm 2 mps 665 mmHg 12%
    15:00 +35°C° 0 mm 2 mps 665 mmHg 12%
    16:00 +35°C° 0 mm 2 mps 664 mmHg 13%
    17:00 +34°C° 0 mm 2 mps 664 mmHg 15%
    18:00 +31°C° 0 mm 2 mps 665 mmHg 17%
    19:00 +30°C° 0 mm 1 mps 665 mmHg 19%
    20:00 +29°C° 0 mm 2 mps 665 mmHg 21%
    21:00 +29°C° 0 mm 2 mps 665 mmHg 23%
    22:00 +28°C° 0 mm 3 mps 666 mmHg 25%
    23:00 +27°C° 0 mm 3 mps 665 mmHg 26%

    19 November, Tuesday

    Time Temperature Precipitation Wind Pressure Humidity
    00:00 +26°C° 0 mm 4 mps 665 mmHg 26%
    01:00 +25°C° 0 mm 5 mps 664 mmHg 27%
    02:00 +23°C° 0 mm 4 mps 664 mmHg 28%
    03:00 +22°C° 0 mm 3 mps 664 mmHg 28%
    04:00 +23°C° 0 mm 2 mps 664 mmHg 29%
    05:00 +23°C° 0 mm 2 mps 665 mmHg 27%
    06:00 +24°C° 0 mm 2 mps 666 mmHg 25%
    07:00 +25°C° 0 mm 1 mps 666 mmHg 23%
    08:00 +26°C° 0 mm 1 mps 666 mmHg 21%
    09:00 +27°C° 0 mm 1 mps 666 mmHg 18%
    10:00 +28°C° 0 mm 1 mps 667 mmHg 16%
    11:00 +30°C° 0 mm 2 mps 666 mmHg 14%
    12:00 +31°C° 0 mm 2 mps 666 mmHg 13%
    13:00 +34°C° 0 mm 3 mps 666 mmHg 11%
    14:00 +35°C° 0 mm 2 mps 665 mmHg 12%
    15:00 +35°C° 0 mm 2 mps 665 mmHg 13%
    16:00 +35°C° 0 mm 2 mps 664 mmHg 14%
    17:00 +32°C° 0 mm 2 mps 664 mmHg 16%
    18:00 +31°C° 0 mm 2 mps 664 mmHg 17%
    19:00 +29°C° 0 mm 2 mps 664 mmHg 19%
    20:00 +28°C° 0 mm 2 mps 664 mmHg 19%
    21:00 +27°C° 0 mm 3 mps 665 mmHg 20%
    22:00 +26°C° 0 mm 3 mps 665 mmHg 20%
    23:00 +25°C° 0 mm 3 mps 665 mmHg 21%
    Show more